Simultaneous Nadir Overpasses (SNOs) Predictions

Prediction of SNOs between NOAA-20 and LANDSAT-8 Satellite Orbit:

Table of predicted SNOs for the next 14.0 days since TLE Epoch: 3/2/2024
Index Date (NOAA-20) Time (NOAA-20) Lat,Lon (NOAA-20) SZA (NOAA-20 ) Date (LANDSAT-8) Time (LANDSAT-8) Lat,Lon (LANDSAT-8) SZA (LANDSAT-8 ) Distance(km) Time Diff (sec)
1 03/02/2024 06:32:45 -70.18,-101.94 102.80 03/02/2024 06:33:37 -70.20,-101.91 102.79 2.81 52
2 03/02/2024 07:23:29 70.05, 65.56 77.06 03/02/2024 07:23:05 70.05, 65.52 77.06 1.78 24
3 03/02/2024 08:13:55 -69.12,-125.77 103.93 03/02/2024 08:12:48 -69.21,-127.99 103.75 88.36 67
4 03/04/2024 21:59:14 71.12,-155.01 77.18 03/04/2024 22:00:20 71.05,-152.39 77.00 94.93 66
5 03/04/2024 22:49:39 -70.14, 13.89 103.87 03/04/2024 22:50:04 -70.16, 13.91 103.86 1.88 25
6 03/04/2024 23:40:23 70.02,-178.62 75.99 03/04/2024 23:39:32 70.01,-178.66 75.98 2.39 51
7 03/07/2024 14:15:50 70.21, -37.75 75.17 03/07/2024 14:17:00 70.21, -37.76 75.16 0.34 70
8 03/07/2024 15:06:32 -70.12, 129.70 104.94 03/07/2024 15:06:30 -70.09, 129.71 104.97 3.25 2
9 03/07/2024 15:57:12 69.79, -62.49 74.70 03/07/2024 15:56:00 69.83, -63.02 74.77 20.63 72
10 03/10/2024 06:32:44 70.20, 78.04 74.10 03/10/2024 06:33:26 70.17, 78.08 74.07 3.32 42
11 03/10/2024 07:23:25 -70.05,-114.42 106.07 03/10/2024 07:22:56 -70.05,-114.46 106.06 1.47 29
12 03/12/2024 21:59:06 -70.93, 25.33 106.17 03/12/2024 22:00:14 -70.81, 27.27 106.37 71.88 68
13 03/12/2024 22:49:37 70.14,-166.09 72.99 03/12/2024 22:49:51 70.16,-166.05 73.00 2.43 14
14 03/12/2024 23:40:19 -70.05, 1.37 107.13 03/12/2024 23:39:21 -70.04, 1.42 107.13 1.99 58
15 03/15/2024 14:15:46 -70.20, 142.29 108.01 03/15/2024 14:16:50 -70.18, 142.23 108.04 3.45 64
16 03/15/2024 15:06:30 70.10, -50.24 71.87 03/15/2024 15:06:16 70.12, -50.21 71.90 3.08 14
17 03/15/2024 15:57:04 -69.57, 117.86 108.69 03/15/2024 15:55:53 -69.63, 116.74 108.59 43.79 71



Historial Predications of SNOs between NOAA-20 and LANDSAT-8
